Date,Time,Wetness (Wet Dry or Ice),Wind Speed (m/s),Temperature (C),Humidity (%),Pressure (mb),Radiation (W/m^2)
2020-03-04,06:40:00,DRY,1.83,12.80,20.0,779.00,0.8
2020-03-04,06:45:00,DRY,2.80,12.85,20.0,779.00,2.0
2020-03-04,06:50:00,DRY,3.30,12.73,20.3,779.00,0.9
2020-03-04,06:55:00,DRY,3.10,12.65,20.5,779.00,0.9
2020-03-04,07:00:00,DRY,3.00,12.83,20.0,779.00,1.4
2020-03-04,07:05:00,DRY,2.05,12.80,20.0,779.00,2.0
2020-03-04,07:10:00,DRY,2.40,12.77,20.0,779.00,1.5
2020-03-04,07:15:00,DRY,2.25,12.80,20.0,779.00,1.6
2020-03-04,07:20:00,DRY,2.73,12.73,20.0,779.00,2.7
2020-03-04,07:25:00,DRY,1.90,12.70,20.0,779.00,4.6
2020-03-04,07:30:00,DRY,3.10,12.77,20.0,779.00,6.4
2020-03-04,07:35:00,DRY,2.65,12.65,20.0,779.00,8.8
2020-03-04,07:40:00,DRY,2.37,12.60,20.0,779.00,11.7
2020-03-04,07:45:00,DRY,1.90,12.65,20.0,779.00,14.2
2020-03-04,07:50:00,DRY,1.70,12.67,20.0,779.00,16.2
2020-03-04,07:55:00,DRY,1.75,12.70,20.0,779.00,18.1
2020-03-04,08:00:00,DRY,2.10,12.73,20.0,779.33,19.9
2020-03-04,08:05:00,DRY,1.95,12.85,20.0,780.00,22.4
2020-03-04,08:10:00,DRY,2.77,12.97,20.0,780.00,23.9
2020-03-04,08:15:00,DRY,2.50,13.00,20.0,780.00,25.2
2020-03-04,08:20:00,DRY,1.90,13.03,20.0,780.00,26.4
2020-03-04,08:25:00,DRY,3.50,13.15,19.5,780.00,28.0
2020-03-04,08:30:00,DRY,2.13,13.27,19.0,780.00,30.2
2020-03-04,08:35:00,DRY,2.55,13.30,19.5,780.00,157.6
2020-03-04,08:40:00,DRY,2.53,13.60,19.0,780.67,307.7
2020-03-04,08:45:00,DRY,2.30,13.85,18.5,781.00,332.0
2020-03-04,08:50:00,DRY,3.40,13.87,18.7,781.00,353.7
2020-03-04,08:55:00,DRY,1.90,14.00,19.0,781.00,376.8
2020-03-04,09:00:00,DRY,1.80,14.10,19.0,781.00,399.3
2020-03-04,09:05:00,DRY,1.05,14.10,19.0,781.00,421.5
2020-03-04,09:10:00,DRY,0.87,14.17,19.0,780.00,444.8
2020-03-04,09:15:00,DRY,1.95,14.40,19.0,780.00,467.7
2020-03-04,09:20:00,DRY,1.87,14.37,19.7,781.00,489.7
2020-03-04,09:25:00,DRY,2.10,14.45,20.0,780.00,510.6
2020-03-04,09:30:00,DRY,2.07,14.33,20.0,780.00,532.0
2020-03-04,09:35:00,DRY,0.80,14.40,20.5,780.00,554.1
2020-03-04,09:40:00,DRY,1.33,14.33,20.3,780.33,574.6
2020-03-04,09:45:00,DRY,2.10,14.40,21.5,781.00,595.5
2020-03-04,09:50:00,DRY,1.37,14.63,20.7,780.33,616.2
2020-03-04,09:55:00,DRY,1.70,14.55,21.5,780.00,634.8
2020-03-04,10:00:00,DRY,2.00,14.23,21.3,780.00,655.4
2020-03-04,10:05:00,DRY,2.10,14.30,21.0,780.00,675.7
2020-03-04,10:10:00,DRY,2.50,14.50,21.7,780.00,695.2
2020-03-04,10:15:00,DRY,1.45,14.55,21.0,780.00,714.2
2020-03-04,10:20:00,DRY,1.40,14.93,21.0,780.67,732.4
2020-03-04,10:25:00,DRY,1.30,15.10,20.0,781.00,750.0
2020-03-04,10:30:00,DRY,1.70,15.17,20.7,780.00,768.1
2020-03-04,10:35:00,DRY,2.60,15.15,20.0,780.00,783.8
2020-03-04,10:40:00,DRY,1.67,15.23,21.0,780.33,800.5
2020-03-04,10:45:00,DRY,1.15,15.25,20.0,781.00,815.0
2020-03-04,10:50:00,DRY,1.87,15.47,20.0,781.00,831.3
2020-03-04,10:55:00,DRY,1.25,15.40,20.0,781.00,847.9
2020-03-04,11:00:00,DRY,2.40,15.40,20.3,781.00,862.4
2020-03-04,11:05:00,DRY,2.60,15.35,21.0,781.00,877.3
2020-03-04,11:10:00,DRY,1.27,15.47,21.3,780.00,890.8
2020-03-04,11:15:00,DRY,1.45,15.55,21.5,780.00,904.6
2020-03-04,11:20:00,DRY,3.17,15.63,21.0,780.00,916.4
2020-03-04,11:25:00,DRY,2.20,15.15,21.0,780.00,928.4
2020-03-04,11:30:00,DRY,2.30,15.43,22.3,780.00,939.9
2020-03-04,11:35:00,DRY,2.45,15.70,22.0,780.00,952.0
2020-03-04,11:40:00,DRY,2.27,15.77,22.7,780.00,962.0
2020-03-04,11:45:00,DRY,1.25,15.50,22.5,780.00,972.8
2020-03-04,11:50:00,DRY,2.37,15.67,22.3,779.33,981.8
2020-03-04,11:55:00,DRY,1.90,15.85,23.5,779.00,992.1
2020-03-04,12:00:00,DRY,1.93,16.13,25.0,779.67,1001.4
2020-03-04,12:05:00,DRY,0.75,15.90,27.0,780.00,1008.4
2020-03-04,12:10:00,DRY,1.63,15.37,29.7,780.00,1017.5
2020-03-04,12:15:00,DRY,1.25,14.95,32.5,780.00,1026.0
2020-03-04,12:20:00,DRY,1.53,15.27,32.3,780.00,1030.4
2020-03-04,12:25:00,DRY,1.75,15.05,33.0,780.00,1038.5
2020-03-04,12:30:00,DRY,1.53,14.90,33.7,780.00,1043.5
2020-03-04,12:35:00,DRY,1.70,15.05,31.0,779.50,1049.6
2020-03-04,12:40:00,DRY,0.70,15.57,29.7,779.00,1053.1
2020-03-04,12:45:00,DRY,2.80,16.10,28.0,779.00,1059.4
2020-03-04,12:50:00,DRY,1.33,15.83,31.7,779.00,1060.2
2020-03-04,12:55:00,DRY,2.55,15.80,32.5,779.00,1067.4
2020-03-04,13:00:00,DRY,1.00,15.60,31.7,779.00,1066.8
2020-03-04,13:05:00,DRY,2.10,15.65,28.5,778.50,1069.2
2020-03-04,13:10:00,DRY,0.87,15.70,31.0,778.00,1067.6
2020-03-04,13:15:00,DRY,1.40,16.05,31.0,778.00,1068.7
2020-03-04,13:20:00,DRY,1.83,15.30,32.7,778.00,1068.2
2020-03-04,13:25:00,DRY,1.80,15.00,34.0,778.00,1068.2
2020-03-04,13:30:00,DRY,2.50,14.40,35.0,778.00,1065.6
2020-03-04,13:35:00,DRY,0.90,15.30,33.0,778.00,1067.7
2020-03-04,13:40:00,DRY,2.27,15.10,32.0,778.00,1064.1
2020-03-04,13:45:00,DRY,1.90,14.80,33.5,778.00,1061.1
2020-03-04,13:50:00,DRY,1.20,14.83,33.3,778.00,1057.7
2020-03-04,13:55:00,DRY,2.10,14.45,35.0,778.00,1052.8
2020-03-04,14:00:00,DRY,1.63,14.63,34.7,777.33,1049.9
2020-03-04,14:05:00,DRY,2.45,14.70,35.0,777.00,1043.6
2020-03-04,14:10:00,DRY,2.03,14.77,35.3,777.00,1038.8
2020-03-04,14:15:00,DRY,2.65,14.95,34.0,777.00,1031.9
2020-03-04,14:20:00,DRY,1.73,14.47,34.3,778.00,1025.1
2020-03-04,14:25:00,DRY,1.60,14.50,34.0,778.00,1018.6
2020-03-04,14:30:00,DRY,1.70,14.87,33.7,778.00,1009.0
2020-03-04,14:35:00,DRY,2.35,15.20,33.5,778.00,1003.5
2020-03-04,14:40:00,DRY,1.73,14.83,34.3,778.00,992.3
2020-03-04,14:45:00,DRY,2.70,14.80,34.0,778.00,983.5
2020-03-04,14:50:00,DRY,2.53,14.60,35.3,778.00,976.8
2020-03-04,14:55:00,DRY,1.60,14.90,34.5,778.00,968.3
2020-03-04,15:00:00,DRY,1.93,14.53,35.0,778.00,956.2
2020-03-04,15:05:00,DRY,2.45,15.00,35.5,778.00,945.7
2020-03-04,15:10:00,DRY,1.63,15.07,35.7,778.00,933.5
2020-03-04,15:15:00,DRY,1.65,14.25,36.0,778.00,922.6
2020-03-04,15:20:00,DRY,1.83,14.47,37.0,778.00,909.4
2020-03-04,15:25:00,DRY,2.45,14.15,37.5,778.00,894.1
2020-03-04,15:30:00,DRY,1.53,14.53,37.7,778.00,884.5
2020-03-04,15:35:00,DRY,2.00,15.10,35.0,778.00,868.8
2020-03-04,15:40:00,DRY,1.90,14.83,35.0,778.00,855.3
2020-03-04,15:45:00,DRY,2.75,15.35,34.0,778.00,842.2
2020-03-04,15:50:00,DRY,1.60,14.83,34.0,778.00,829.4
2020-03-04,15:55:00,DRY,1.95,14.70,35.0,778.00,784.5
2020-03-04,16:00:00,DRY,2.23,14.43,37.3,778.00,763.9
2020-03-04,16:05:00,DRY,1.40,14.05,38.5,778.00,734.3
2020-03-04,16:10:00,DRY,1.03,13.70,39.7,777.33,619.8
2020-03-04,16:15:00,DRY,1.45,13.85,40.0,777.00,760.3
2020-03-04,16:20:00,DRY,1.47,14.17,39.0,777.00,701.6
2020-03-04,16:25:00,DRY,1.65,14.00,39.5,778.00,722.4
2020-03-04,16:30:00,DRY,1.10,13.90,40.0,777.67,743.7
2020-03-04,16:35:00,DRY,1.90,14.15,40.5,777.50,693.2
2020-03-04,16:40:00,DRY,1.07,14.03,41.0,778.00,661.3
2020-03-04,16:45:00,DRY,0.90,13.80,42.0,778.00,640.0
2020-03-04,16:50:00,DRY,0.53,14.20,40.7,778.00,616.1
2020-03-04,16:55:00,DRY,1.15,14.50,40.0,778.00,594.5
2020-03-04,17:00:00,DRY,0.53,14.43,39.3,777.33,573.0
2020-03-04,17:05:00,DRY,1.35,14.95,37.5,777.00,524.2
2020-03-04,17:10:00,DRY,0.80,14.73,38.0,777.00,532.7
2020-03-04,17:15:00,DRY,0.85,14.80,37.5,777.00,470.7
2020-03-04,17:20:00,DRY,1.90,14.67,37.0,777.00,475.5
2020-03-04,17:25:00,DRY,2.55,14.50,37.0,777.00,477.9
2020-03-04,17:30:00,DRY,1.93,14.37,36.7,777.00,447.6
2020-03-04,17:35:00,DRY,1.85,14.65,35.5,777.00,372.5
2020-03-04,17:40:00,DRY,1.13,14.50,37.7,777.00,382.4
2020-03-04,17:45:00,DRY,0.75,14.15,40.0,777.00,415.1
2020-03-04,17:50:00,DRY,0.83,14.13,40.0,777.00,203.8
2020-03-04,17:55:00,DRY,1.80,14.00,40.0,777.00,244.8
2020-03-04,18:00:00,DRY,0.83,13.67,40.7,777.00,84.4
2020-03-04,18:05:00,DRY,1.20,13.30,44.5,777.00,173.9
2020-03-04,18:10:00,DRY,1.03,13.23,44.0,777.00,113.4
2020-03-04,18:15:00,DRY,1.20,12.55,46.5,777.00,206.3
2020-03-04,18:20:00,DRY,1.03,12.33,44.0,777.00,106.9
2020-03-04,18:25:00,DRY,0.65,12.10,47.0,777.00,75.1
2020-03-04,18:30:00,DRY,0.43,12.13,46.7,776.67,63.8
2020-03-04,18:35:00,DRY,0.70,12.20,47.0,776.00,52.4
2020-03-04,18:40:00,DRY,0.53,12.23,47.0,776.00,48.0
2020-03-04,18:45:00,DRY,0.50,12.35,47.0,776.00,45.9
2020-03-04,18:50:00,DRY,0.47,12.40,46.0,776.00,35.4
2020-03-04,18:55:00,DRY,0.50,12.25,46.5,776.00,22.4
2020-03-04,19:00:00,DRY,1.10,12.03,47.3,776.00,14.0
2020-03-04,19:05:00,DRY,0.90,11.65,44.0,776.00,7.7
2020-03-04,19:10:00,DRY,0.63,11.27,44.3,776.00,5.9
2020-03-04,19:15:00,DRY,1.10,11.35,47.0,776.00,4.0
2020-03-04,19:20:00,DRY,1.07,11.43,46.3,776.00,3.5
2020-03-04,19:25:00,DRY,1.15,11.35,46.5,776.00,1.9
2020-03-04,19:30:00,DRY,0.90,11.43,46.7,776.00,1.6
2020-03-04,19:35:00,DRY,0.45,11.70,46.5,776.00,1.2
2020-03-04,19:40:00,DRY,0.40,11.97,46.0,776.00,1.3
2020-03-04,19:45:00,DRY,0.60,12.10,41.5,776.00,1.5
2020-03-04,19:50:00,DRY,0.77,12.37,39.7,777.00,1.5
2020-03-04,19:55:00,DRY,0.70,12.40,39.5,777.00,0.7
2020-03-04,20:00:00,DRY,0.47,12.30,38.7,777.00,1.0
2020-03-04,20:05:00,DRY,0.10,12.10,39.0,777.00,1.1
2020-03-04,20:10:00,DRY,0.43,11.80,40.3,777.00,1.0
2020-03-04,20:15:00,DRY,0.55,11.65,43.5,776.50,1.4
2020-03-04,20:20:00,DRY,0.37,11.53,42.7,777.00,1.7
2020-03-04,20:25:00,DRY,0.50,11.70,40.0,777.00,1.1
2020-03-04,20:30:00,DRY,0.60,11.90,38.7,777.00,1.2
2020-03-04,20:35:00,DRY,0.20,12.00,37.5,777.00,1.8
2020-03-04,20:40:00,DRY,0.33,11.87,40.3,777.00,0.9
2020-03-04,20:45:00,DRY,0.65,11.80,43.0,777.00,1.1
2020-03-04,20:50:00,DRY,0.57,11.83,44.0,777.00,1.7
2020-03-04,20:55:00,DRY,0.85,11.85,45.0,777.00,1.1
2020-03-04,21:00:00,DRY,0.57,11.83,45.0,777.00,1.2
2020-03-04,21:05:00,DRY,0.90,11.80,44.0,777.00,1.1
2020-03-04,21:10:00,DRY,0.77,11.90,43.7,777.00,1.0
2020-03-04,21:15:00,DRY,1.20,11.95,44.0,777.50,1.6
2020-03-04,21:20:00,DRY,1.77,11.77,44.3,778.00,0.9
2020-03-04,21:25:00,DRY,0.95,11.90,44.5,778.00,1.1
2020-03-04,21:30:00,DRY,0.53,12.00,44.0,778.00,0.9
2020-03-04,21:35:00,DRY,0.60,12.00,43.0,778.00,1.5
2020-03-04,21:40:00,DRY,1.93,11.90,44.0,778.33,0.9
2020-03-04,21:45:00,DRY,2.30,11.20,49.5,779.00,1.4
2020-03-04,21:50:00,DRY,1.03,11.53,38.7,779.00,0.9
2020-03-04,21:55:00,DRY,1.15,12.25,30.5,779.00,1.8
2020-03-04,22:00:00,DRY,2.23,12.13,30.7,779.00,1.5
2020-03-04,22:05:00,DRY,1.75,11.85,38.5,779.00,1.2
2020-03-04,22:10:00,DRY,1.07,11.83,38.3,779.00,1.5
2020-03-04,22:15:00,DRY,0.95,12.15,28.5,779.00,1.6
2020-03-04,22:20:00,DRY,1.67,12.27,27.0,779.00,1.8
2020-03-04,22:25:00,DRY,1.00,12.35,25.5,779.00,1.9
2020-03-04,22:30:00,DRY,0.83,11.87,27.3,779.00,0.6
2020-03-04,22:35:00,DRY,1.50,11.45,27.0,779.00,1.3
2020-03-04,22:40:00,DRY,0.73,11.53,25.3,779.00,1.5
2020-03-04,22:45:00,DRY,0.25,11.65,25.5,779.00,1.4
2020-03-04,22:50:00,DRY,0.90,11.60,25.0,779.00,0.2
2020-03-04,22:55:00,DRY,1.15,11.50,26.0,778.50,0.8
2020-03-04,23:00:00,DRY,0.60,11.80,25.0,778.00,1.0
2020-03-04,23:05:00,DRY,0.40,11.85,24.5,778.50,1.1
2020-03-04,23:10:00,DRY,0.50,12.13,24.7,778.67,1.0
2020-03-04,23:15:00,DRY,0.35,11.95,24.0,778.00,1.3
2020-03-04,23:20:00,DRY,0.57,11.87,24.3,778.00,0.8
2020-03-04,23:25:00,DRY,0.55,12.15,24.5,778.00,1.4
2020-03-04,23:30:00,DRY,1.20,12.27,24.0,778.67,1.6
2020-03-04,23:35:00,DRY,1.60,12.10,25.0,779.00,1.1
2020-03-04,23:40:00,DRY,1.40,12.33,21.3,779.00,1.5
2020-03-04,23:45:00,DRY,1.90,12.55,22.0,779.00,0.8
2020-03-04,23:50:00,DRY,1.70,12.17,24.7,780.00,1.6
2020-03-04,23:55:00,DRY,1.70,12.15,23.5,779.50,2.5
2020-03-05,00:00:00,DRY,1.37,12.30,23.7,780.00,1.3
2020-03-05,00:05:00,DRY,1.20,12.15,24.0,780.00,1.2
2020-03-05,00:10:00,DRY,2.23,12.23,24.0,779.00,1.6
2020-03-05,00:15:00,DRY,1.55,12.20,24.0,779.50,0.4
2020-03-05,00:20:00,DRY,1.93,12.30,24.0,780.00,0.6
2020-03-05,00:25:00,DRY,1.00,12.30,24.0,780.00,1.2
2020-03-05,00:30:00,DRY,1.20,12.37,24.3,780.00,1.3
2020-03-05,00:35:00,DRY,1.80,12.05,24.5,780.00,0.2
2020-03-05,00:40:00,DRY,2.50,12.20,23.0,780.00,1.0
2020-03-05,00:45:00,DRY,0.80,11.80,24.0,780.00,1.8
2020-03-05,00:50:00,DRY,1.23,11.67,24.0,779.00,0.6
2020-03-05,00:55:00,DRY,0.95,11.80,23.0,779.00,2.5
2020-03-05,01:00:00,DRY,1.27,11.73,24.0,779.00,1.6
2020-03-05,01:05:00,DRY,0.60,11.70,24.0,779.00,1.1
2020-03-05,01:10:00,DRY,1.00,11.43,25.0,779.00,2.2
2020-03-05,01:15:00,DRY,0.80,11.15,25.5,778.00,1.0
2020-03-05,01:20:00,DRY,0.87,11.00,26.0,778.00,1.2
2020-03-05,01:25:00,DRY,1.15,11.20,25.5,778.00,1.3
2020-03-05,01:30:00,DRY,1.13,11.40,24.0,778.00,1.4
2020-03-05,01:35:00,DRY,1.70,11.55,24.0,778.00,1.1
2020-03-05,01:40:00,DRY,1.77,11.20,26.0,778.00,1.4
2020-03-05,01:45:00,DRY,0.55,10.95,27.0,778.00,1.3
2020-03-05,01:50:00,DRY,0.57,11.13,26.0,777.67,1.2
2020-03-05,01:55:00,DRY,1.40,11.45,25.0,777.00,1.3
2020-03-05,02:00:00,DRY,1.47,11.57,25.0,777.00,1.6
2020-03-05,02:05:00,DRY,0.90,11.75,24.0,777.00,1.6
2020-03-05,02:10:00,DRY,0.67,11.37,24.7,777.00,1.5
2020-03-05,02:15:00,DRY,1.10,11.05,25.0,777.00,1.3
2020-03-05,02:20:00,DRY,1.00,11.30,25.3,777.00,1.2
2020-03-05,02:25:00,DRY,0.30,11.45,25.0,777.00,1.0
2020-03-05,02:30:00,DRY,0.57,11.63,25.0,777.00,1.3
2020-03-05,02:35:00,DRY,0.70,11.95,24.0,777.00,1.0
2020-03-05,02:40:00,DRY,0.70,11.80,24.3,777.00,0.7
2020-03-05,02:45:00,DRY,1.05,11.85,24.0,777.00,1.7
2020-03-05,02:50:00,DRY,2.10,11.57,24.0,777.00,1.2
2020-03-05,02:55:00,DRY,3.10,11.40,27.0,777.50,1.1
2020-03-05,03:00:00,DRY,2.67,11.20,31.7,778.00,1.4
2020-03-05,03:05:00,DRY,2.65,11.15,34.5,778.00,1.1
2020-03-05,03:10:00,DRY,2.03,10.83,33.3,778.00,1.0
2020-03-05,03:15:00,DRY,1.60,10.70,31.0,778.00,0.8
2020-03-05,03:20:00,DRY,1.23,10.80,28.7,777.33,0.8
2020-03-05,03:25:00,DRY,0.70,10.75,27.5,777.00,1.7
2020-03-05,03:30:00,DRY,0.60,10.47,26.7,777.00,0.8
2020-03-05,03:35:00,DRY,1.20,10.65,26.0,777.00,0.9
2020-03-05,03:40:00,DRY,1.20,10.67,27.3,777.00,2.0
2020-03-05,03:45:00,DRY,1.10,10.60,28.0,777.00,1.4
2020-03-05,03:50:00,DRY,1.47,10.40,29.0,777.00,1.1
2020-03-05,03:55:00,DRY,1.85,10.35,30.5,777.00,0.2
2020-03-05,04:00:00,DRY,1.70,10.33,31.0,777.00,1.0
2020-03-05,04:05:00,DRY,2.45,10.20,31.5,777.00,1.7
2020-03-05,04:10:00,DRY,2.33,10.23,32.3,777.00,1.2
2020-03-05,04:15:00,DRY,2.80,10.20,32.0,777.00,1.8
2020-03-05,04:20:00,DRY,2.10,10.30,31.3,777.00,1.4
2020-03-05,04:25:00,DRY,2.10,10.25,33.5,777.00,1.1
2020-03-05,04:30:00,DRY,2.27,10.20,33.3,777.00,1.4
2020-03-05,04:35:00,DRY,2.25,10.35,31.5,776.50,1.1
2020-03-05,04:40:00,DRY,2.00,10.47,31.0,776.00,0.9
2020-03-05,04:45:00,DRY,1.80,10.55,30.5,776.00,1.5
2020-03-05,04:50:00,DRY,2.20,10.60,30.0,776.33,0.8
2020-03-05,04:55:00,DRY,2.60,10.40,31.0,776.50,0.8
2020-03-05,05:00:00,DRY,2.30,10.47,31.0,777.00,1.5
2020-03-05,05:05:00,DRY,2.35,10.30,31.0,777.00,0.9
2020-03-05,05:10:00,DRY,1.67,10.50,30.3,777.00,0.4
2020-03-05,05:15:00,DRY,1.45,10.70,30.0,777.00,1.1
2020-03-05,05:20:00,DRY,1.73,10.50,30.0,777.00,1.1
2020-03-05,05:25:00,DRY,1.40,10.30,30.0,777.00,1.6
2020-03-05,05:30:00,DRY,1.03,10.47,30.0,776.67,1.5
2020-03-05,05:35:00,DRY,0.35,10.40,30.0,776.50,1.6
2020-03-05,05:40:00,DRY,0.50,10.20,30.0,776.00,1.5
2020-03-05,05:45:00,DRY,0.90,10.15,30.0,776.00,0.9
2020-03-05,05:50:00,DRY,0.90,10.73,26.7,776.33,1.1
2020-03-05,05:55:00,DRY,0.90,10.80,26.5,777.00,1.8
2020-03-05,06:00:00,DRY,1.03,10.63,28.7,777.00,1.3
2020-03-05,06:05:00,DRY,1.05,10.60,29.0,777.00,0.8
2020-03-05,06:10:00,DRY,0.90,10.70,28.7,778.00,1.8
2020-03-05,06:15:00,DRY,1.90,11.00,26.5,778.00,1.8
2020-03-05,06:20:00,DRY,2.07,10.73,26.3,778.00,1.4
2020-03-05,06:25:00,DRY,2.25,11.10,26.5,778.00,1.1
2020-03-05,06:30:00,DRY,1.63,11.03,26.3,778.00,1.2
2020-03-05,06:35:00,DRY,1.50,11.35,25.5,778.00,1.9
2020-03-05,06:40:00,DRY,0.63,10.93,26.0,778.00,1.2
2020-03-05,06:45:00,DRY,0.50,10.65,27.0,778.00,1.1
2020-03-05,06:50:00,DRY,0.63,10.93,26.0,777.67,1.0
2020-03-05,06:55:00,DRY,1.20,10.60,27.0,777.00,1.1
2020-03-05,07:00:00,DRY,1.17,10.27,28.3,777.00,0.9
2020-03-05,07:05:00,DRY,1.00,10.10,29.0,777.00,0.9
2020-03-05,07:10:00,DRY,0.83,10.17,29.7,776.33,1.3
2020-03-05,07:15:00,DRY,1.25,10.50,29.0,776.00,1.4
2020-03-05,07:20:00,DRY,1.77,10.37,29.3,776.33,2.3
2020-03-05,07:25:00,DRY,1.65,10.15,30.5,777.00,3.9
2020-03-05,07:30:00,DRY,1.53,9.73,34.7,777.00,4.2
2020-03-05,07:35:00,DRY,1.55,9.50,36.0,777.00,7.6
2020-03-05,07:40:00,DRY,1.70,9.47,36.0,777.00,11.1
2020-03-05,07:45:00,DRY,1.25,9.55,36.0,777.00,14.6
2020-03-05,07:50:00,DRY,1.43,9.57,35.7,777.00,17.4
2020-03-05,07:55:00,DRY,1.30,9.70,35.0,777.00,20.0
2020-03-05,08:00:00,DRY,1.30,10.13,34.0,777.33,21.3
2020-03-05,08:05:00,DRY,1.50,10.60,29.0,778.00,23.2
2020-03-05,08:10:00,DRY,1.43,10.83,28.0,779.00,25.4
2020-03-05,08:15:00,DRY,1.25,10.90,28.0,779.00,26.9
2020-03-05,08:20:00,DRY,1.30,11.03,27.0,779.00,28.1
2020-03-05,08:25:00,DRY,1.10,11.55,25.0,779.00,30.1
2020-03-05,08:30:00,DRY,0.87,11.57,22.7,779.00,32.0
2020-03-05,08:35:00,DRY,0.65,11.20,23.0,779.00,210.9
2020-03-05,08:40:00,DRY,1.23,11.73,22.3,779.67,306.4
2020-03-05,08:45:00,DRY,1.30,11.85,22.5,779.50,328.6
2020-03-05,08:50:00,DRY,1.77,11.87,22.3,778.67,352.6
2020-03-05,08:55:00,DRY,1.90,12.15,21.0,778.00,375.8
2020-03-05,09:00:00,DRY,1.53,12.23,21.3,778.00,398.3
2020-03-05,09:05:00,DRY,1.10,12.30,22.5,779.00,421.8
2020-03-05,09:10:00,DRY,1.13,12.53,20.7,779.00,443.2
2020-03-05,09:15:00,DRY,0.50,12.80,20.5,779.00,466.9
2020-03-05,09:20:00,DRY,1.03,12.93,20.0,779.00,488.6
2020-03-05,09:25:00,DRY,1.05,13.10,19.5,779.00,512.0
2020-03-05,09:30:00,DRY,0.50,13.20,20.3,779.00,533.0
2020-03-05,09:35:00,DRY,0.90,13.45,20.0,779.00,554.9
2020-03-05,09:40:00,DRY,0.93,13.50,20.0,779.00,576.7
2020-03-05,09:45:00,DRY,0.95,13.65,21.0,779.00,597.1
2020-03-05,09:50:00,DRY,1.27,13.50,20.7,779.00,619.0
2020-03-05,09:55:00,DRY,2.05,13.45,22.5,779.00,638.7
2020-03-05,10:00:00,DRY,1.30,13.10,24.0,779.00,658.7
2020-03-05,10:05:00,DRY,1.10,13.20,25.0,779.00,678.3
2020-03-05,10:10:00,DRY,1.10,13.40,25.7,779.00,697.5
2020-03-05,10:15:00,DRY,0.30,13.65,25.0,779.00,716.3
2020-03-05,10:20:00,DRY,0.80,14.17,19.0,779.00,736.4
2020-03-05,10:25:00,DRY,1.05,13.75,17.5,779.00,753.2
2020-03-05,10:30:00,DRY,1.37,14.10,21.7,779.00,770.7
2020-03-05,10:35:00,DRY,0.95,14.15,26.0,779.00,786.5
2020-03-05,10:40:00,DRY,1.00,13.77,26.0,779.00,804.3
2020-03-05,10:45:00,DRY,0.95,13.80,28.0,779.00,819.4
2020-03-05,10:50:00,DRY,0.93,14.17,27.3,779.00,836.3
2020-03-05,10:55:00,DRY,0.75,14.95,25.0,779.00,852.6
2020-03-05,11:00:00,DRY,1.43,14.97,26.0,779.00,866.3
2020-03-05,11:05:00,DRY,1.00,14.20,28.0,779.00,881.4
2020-03-05,11:10:00,DRY,1.27,13.93,31.0,779.00,893.2
2020-03-05,11:15:00,DRY,1.10,14.30,31.0,779.00,904.8
2020-03-05,11:20:00,DRY,1.63,14.77,32.3,779.00,917.2
2020-03-05,11:25:00,DRY,2.15,14.40,34.0,779.00,930.0
2020-03-05,11:30:00,DRY,1.43,13.77,36.0,779.00,941.3
2020-03-05,11:35:00,DRY,1.85,14.15,37.0,779.00,951.3
2020-03-05,11:40:00,DRY,1.57,14.17,38.0,779.00,961.8
2020-03-05,11:45:00,DRY,1.05,14.10,39.0,779.00,974.7
2020-03-05,11:50:00,DRY,2.17,13.77,39.0,779.00,981.5
2020-03-05,11:55:00,DRY,2.40,13.35,38.0,779.00,991.8
2020-03-05,12:00:00,DRY,1.30,13.03,39.7,779.00,997.9
2020-03-05,12:05:00,DRY,1.55,13.00,42.0,779.00,1009.0
2020-03-05,12:10:00,DRY,2.17,13.47,42.0,779.00,1016.6
2020-03-05,12:15:00,DRY,2.25,13.15,43.5,779.00,1022.5
2020-03-05,12:20:00,DRY,2.13,13.17,42.0,779.00,1031.5
2020-03-05,12:25:00,DRY,1.15,13.45,37.5,779.00,1037.0
2020-03-05,12:30:00,DRY,1.27,13.77,38.0,779.00,1043.2
2020-03-05,12:35:00,DRY,0.70,14.35,38.0,779.00,1047.4
2020-03-05,12:40:00,DRY,1.80,14.40,37.0,779.00,1053.4
2020-03-05,12:45:00,DRY,1.35,14.10,41.0,779.00,1058.1
2020-03-05,12:50:00,DRY,1.93,13.67,40.7,779.00,1058.8
2020-03-05,12:55:00,DRY,1.80,13.60,39.5,779.00,1062.5
2020-03-05,13:00:00,DRY,2.07,13.63,40.7,779.00,1064.6
2020-03-05,13:05:00,DRY,1.55,13.60,43.0,779.00,1066.5
2020-03-05,13:10:00,DRY,2.60,13.37,44.0,779.00,1067.6
2020-03-05,13:15:00,DRY,2.50,13.20,45.0,779.00,1067.3
2020-03-05,13:20:00,DRY,2.77,13.30,44.3,778.33,1068.9
2020-03-05,13:25:00,DRY,1.70,13.55,41.0,778.00,1066.9
2020-03-05,13:30:00,DRY,2.00,13.50,41.0,779.00,1068.3
2020-03-05,13:35:00,DRY,2.10,13.60,36.0,778.00,1066.5
2020-03-05,13:40:00,DRY,1.43,13.83,36.7,778.00,1069.4
2020-03-05,13:45:00,DRY,1.05,13.90,38.0,778.00,1062.8
2020-03-05,13:50:00,DRY,1.63,13.60,42.7,778.00,1060.0
2020-03-05,13:55:00,DRY,1.40,13.30,40.0,778.00,1057.5
2020-03-05,14:00:00,DRY,2.10,13.03,42.3,778.00,1053.7
2020-03-05,14:05:00,DRY,1.55,13.30,41.0,778.00,1046.3
2020-03-05,14:10:00,DRY,2.20,13.20,40.3,778.00,1042.2
2020-03-05,14:15:00,DRY,3.25,13.50,38.0,778.00,1036.5
2020-03-05,14:20:00,DRY,2.83,13.23,37.0,778.00,1031.7
2020-03-05,14:25:00,DRY,2.50,13.15,37.0,778.00,1023.5
2020-03-05,14:30:00,DRY,2.70,13.20,37.0,778.00,1016.9
2020-03-05,14:35:00,DRY,2.60,13.35,35.0,778.00,1012.5
2020-03-05,14:40:00,DRY,2.13,13.10,36.3,778.00,1003.9
2020-03-05,14:45:00,DRY,1.95,13.45,35.5,778.00,994.5
2020-03-05,14:50:00,DRY,2.57,14.07,29.0,778.00,983.3
2020-03-05,14:55:00,DRY,2.70,14.00,25.5,778.00,974.8
2020-03-05,15:00:00,DRY,2.90,14.07,26.3,778.00,964.7
2020-03-05,15:05:00,DRY,2.30,14.40,30.5,778.00,953.6
2020-03-05,15:10:00,DRY,2.77,14.17,37.0,778.00,940.5
2020-03-05,15:15:00,DRY,2.80,13.80,38.0,778.00,927.6
2020-03-05,15:20:00,DRY,2.43,13.37,40.0,778.00,916.1
2020-03-05,15:25:00,DRY,2.55,12.95,41.0,778.00,902.8
2020-03-05,15:30:00,DRY,2.07,13.13,40.0,778.00,888.2
2020-03-05,15:35:00,DRY,2.10,12.80,39.0,778.00,877.2
2020-03-05,15:40:00,DRY,2.07,12.97,35.3,778.00,861.7
2020-03-05,15:45:00,DRY,2.70,12.90,34.0,778.00,848.7
2020-03-05,15:50:00,DRY,2.30,13.17,35.0,778.00,830.6
2020-03-05,15:55:00,DRY,2.15,13.00,36.0,778.00,816.0
2020-03-05,16:00:00,DRY,1.97,12.87,34.3,778.00,797.6
2020-03-05,16:05:00,DRY,1.55,13.25,29.5,778.00,780.9
2020-03-05,16:10:00,DRY,1.73,13.13,28.7,778.00,765.0
2020-03-05,16:15:00,DRY,1.80,13.15,31.5,778.00,748.4
2020-03-05,16:20:00,DRY,1.67,13.20,35.3,778.00,729.2
2020-03-05,16:25:00,DRY,1.10,13.05,35.0,778.00,711.5
2020-03-05,16:30:00,DRY,1.73,12.50,40.3,778.00,692.0
2020-03-05,16:35:00,DRY,1.40,12.80,34.5,778.00,674.0
2020-03-05,16:40:00,DRY,1.37,12.80,32.0,778.00,654.1
2020-03-05,16:45:00,DRY,2.10,13.00,32.0,778.00,634.9
2020-03-05,16:50:00,DRY,1.40,12.80,34.3,778.00,612.5
2020-03-05,16:55:00,DRY,0.70,13.30,32.0,778.00,594.0
2020-03-05,17:00:00,DRY,1.50,13.13,34.0,778.00,572.7
2020-03-05,17:05:00,DRY,1.75,12.90,37.5,778.00,549.0
2020-03-05,17:10:00,DRY,1.70,12.97,35.3,778.00,526.5
2020-03-05,17:15:00,DRY,1.60,12.80,37.0,778.00,505.6
2020-03-05,17:20:00,DRY,1.30,12.30,37.7,778.00,483.1
2020-03-05,17:25:00,DRY,0.80,12.25,36.5,778.00,460.9
2020-03-05,17:30:00,DRY,0.77,12.20,37.3,778.00,438.6
2020-03-05,17:35:00,DRY,1.55,12.40,35.0,778.00,417.6
2020-03-05,17:40:00,DRY,1.27,12.00,37.3,778.00,394.5
2020-03-05,17:45:00,DRY,1.15,11.90,38.0,778.00,372.1
2020-03-05,17:50:00,DRY,1.30,11.57,38.3,778.00,349.6
2020-03-05,17:55:00,DRY,1.65,11.20,38.5,778.00,325.4
2020-03-05,18:00:00,DRY,1.77,11.30,35.3,778.00,303.7
2020-03-05,18:05:00,DRY,1.55,11.25,36.0,778.00,282.2
2020-03-05,18:10:00,DRY,1.97,10.93,37.3,778.00,259.1
2020-03-05,18:15:00,DRY,1.85,10.80,36.0,778.00,238.0
2020-03-05,18:20:00,DRY,2.23,10.97,29.7,778.00,215.2
2020-03-05,18:25:00,DRY,2.60,10.95,27.0,778.00,194.8
2020-03-05,18:30:00,DRY,3.77,10.83,27.7,778.00,174.7
2020-03-05,18:35:00,DRY,3.40,10.75,27.5,778.00,153.6
2020-03-05,18:40:00,DRY,4.63,10.57,27.7,778.00,99.7
2020-03-05,18:45:00,DRY,4.05,10.35,28.5,778.00,24.3
2020-03-05,18:50:00,DRY,4.37,10.17,27.3,778.00,22.2
2020-03-05,18:55:00,DRY,5.05,10.10,27.5,778.00,19.8
2020-03-05,19:00:00,DRY,3.63,10.03,28.0,778.00,32.2
2020-03-05,19:05:00,DRY,3.65,10.00,27.0,778.00,19.7
2020-03-05,19:10:00,DRY,4.23,9.97,25.0,778.00,14.5
2020-03-05,19:15:00,DRY,4.05,10.00,24.5,778.00,9.7
2020-03-05,19:20:00,DRY,3.57,9.80,25.0,778.00,5.3
2020-03-05,19:25:00,DRY,4.15,9.70,25.0,778.00,2.9
2020-03-05,19:30:00,DRY,4.50,9.57,26.3,778.00,1.4
2020-03-05,19:35:00,DRY,4.40,9.40,25.5,778.00,1.5
2020-03-05,19:40:00,DRY,4.37,9.47,24.3,778.33,1.4
2020-03-05,19:45:00,DRY,3.90,9.40,23.0,778.50,0.8
2020-03-05,19:50:00,DRY,3.73,9.57,23.3,778.67,1.1
2020-03-05,19:55:00,DRY,6.00,10.00,22.5,778.50,1.1
2020-03-05,20:00:00,DRY,4.33,10.17,21.3,778.33,1.3
2020-03-05,20:05:00,DRY,4.50,9.95,22.0,779.00,1.2
2020-03-05,20:10:00,DRY,3.77,9.97,21.7,778.67,1.5
2020-03-05,20:15:00,DRY,3.60,9.95,21.0,779.00,1.0
2020-03-05,20:20:00,DRY,3.73,9.97,20.7,779.00,1.1
2020-03-05,20:25:00,DRY,4.35,9.95,20.5,779.00,2.1
2020-03-05,20:30:00,DRY,4.17,10.30,20.0,779.00,1.2
2020-03-05,20:35:00,DRY,4.45,10.10,21.0,779.00,2.0
2020-03-05,20:40:00,DRY,4.53,10.40,19.0,779.00,2.0